Flag for Argentina Weather past 2 weeks in Río Gallegos, Santa Cruz, Argentina

Now
61 °F

Partly sunny.


Feels Like: 61 °F
Forecast: 52 / 62 °F
Wind: 25 mph from West

Location: Rio Gallegos Aerodrome

Current Time: Mar 5, 2015 at 11:58:58 AM

Latest Report: Mar 5, 2015 at 11:00 AM


Visibility: N/A

Pressure: 29.27 "Hg

Humidity: 27%

Dew point: 27 °F

Location of Río GallegosLocation

Historic Weather in Río Gallegos — Graph

°F

Río Gallegos temperature yesterday

Maximum temperature yesterday: 70 °F (at 3:00 PM)
Minimum temperature yesterday: 45 °F (at 7:00 AM)
Average temperature yesterday: 58 °F

Past Weeks' High & Low Weather Summary

 TemperatureHumidityPressure
High82 °F (Feb 27, 4:00 PM)88% (Feb 19, 10:00 AM)30.27 "Hg (Feb 19, 10:00 AM)
Low32 °F (Feb 21, 6:00 AM)14% (Mar 2, 3:00 PM)28.29 "Hg (Mar 1, 8:00 AM)
Average56 °F49%29.66 "Hg
* Reported Feb 18 10:00 AM — Mar 5 10:00 AM, Río Gallegos, Weather by CustomWeather, © 2015

Note: Actual official high and low records may vary slightly from our data, if they occured in-between our weather recording intervals... More about our weather records

Advertising

Río Gallegos weather history for previous 24 hours

 ConditionsComfort  
Time TempWeatherWind HumidityBarometerVisibility
10:00 AM
Thu, Mar 5
59 °FSunny.20 mph29%29.24 "Hg10 mi
9:00 AM54 °FSunny.17 mph38%29.24 "Hg10 mi
8:00 AM52 °FPassing clouds.13 mph41%29.24 "HgN/A
7:00 AM54 °FScattered clouds.16 mph41%29.24 "HgN/A
6:00 AM59 °FPassing clouds.24 mph39%29.21 "HgN/A
5:00 AM61 °FPassing clouds.25 mph42%29.18 "HgN/A
4:00 AM64 °FClear.23 mph34%29.15 "Hg10 mi
2:00 AM61 °FClear.24 mph48%29.15 "Hg10 mi
1:00 AM61 °FClear.18 mph48%29.18 "Hg10 mi
12:00 AM61 °FClear.18 mph48%29.21 "Hg10 mi
11:00 PM
Wed, Mar 4
61 °FClear.12 mph48%29.27 "Hg10 mi
10:00 PM61 °FPassing clouds.14 mph55%29.30 "HgN/A
9:00 PM63 °FPassing clouds.13 mph49%29.33 "HgN/A
8:00 PM61 °FClear.18 mph55%29.39 "Hg10 mi
7:00 PM61 °FBroken clouds.31 mph52%29.42 "HgN/A
6:00 PM64 °FBroken clouds.26 mph43%29.42 "HgN/A
5:00 PM63 °FScattered clouds.16 mph45%29.47 "HgN/A
4:00 PM66 °FPassing clouds.12 mph37%29.50 "HgN/A
3:00 PM70 °FScattered clouds.13 mph31%29.56 "HgN/A
2:00 PM64 °FScattered clouds.No wind40%29.59 "HgN/A
1:00 PM66 °FScattered clouds.6 mph37%29.59 "HgN/A
12:00 PM63 °FScattered clouds.No wind45%29.62 "HgN/A
11:00 AM59 °FScattered clouds.6 mph51%29.62 "HgN/A
Weather by CustomWeather, © 2015

See weather overviewHow to use our weather pages